Regional Weather Roundup
Issued by NWS Nashville, TN

Home | Current Version | Previous Version | Text Only | Print | Product List | Glossary On
Versions: 1 2 3 4 5 6 7 8 9 10 11 12 13 14 15 16 17 18 19 20 21 22 23 24 25 26 27 28 29 30 31 32 33 34 35 36 37 38 39 40 41 42 43 44 45 46 47 48 49 50
000
ASUS44 KOHX 271910
RWROHX
MIDDLE TENNESSEE HOURLY WEATHER ROUNDUP
NATIONAL WEATHER SERVICE NASHVILLE TN
200 PM CDT TUE SEP 27 2016

NOTE: "FAIR" INDICATES FEW OR NO CLOUDS BELOW 12,000 FEET WITH
NO SIGNIFICANT WEATHER AND/OR OBSTRUCTIONS TO VISIBILITY.

* THESE REPORTS ARE NOT UNDER NWS QUALITY CONTROL AND MAY NOT
  REPORT WEATHER SUCH AS PRECIPITATION AND FOG.


TNZ005>011-023>034-057-059-062>066-078-080-272000
...NORTHERN MIDDLE TENNESSEE...

CITY           SKY/WX    TMP DP  RH WIND       PRES   REMARKS
CLARKSVILLE    SUNNY     74  39  28 CALM      29.98F
CROSSVILLE     MOSUNNY   78  34  20 NW9       29.98F
GALLATIN       SUNNY     75  41  29 N8        29.99F
DICKSON        SUNNY     73  42  32 VRB3      29.98F
LEBANON        SUNNY     74  44  34 N6        29.96F
LIVINGSTON     SUNNY     74  45  35 N6        29.99F
NASHVILLE      MOSUNNY   77  44  30 N8        29.98F
WEST NASHVILLE SUNNY     75  39  27 NW5       29.97F
PORTLAND       SUNNY     73  41  31 VRB6      29.98F
SMYRNA         SUNNY     76  43  30 W12       29.98F
SPARTA         SUNNY     75  50  41 VRB6      29.96F
$$
TNZ056-058-060-061-075>077-079-093>097-272000
...SOUTHERN MIDDLE TENNESSEE...

CITY           SKY/WX    TMP DP  RH WIND       PRES   REMARKS
COLUMBIA       SUNNY     75  45  33 VRB3      29.97F
FAYETTEVILLE   SUNNY     79  43  27 NW5       29.96F
MCMINNVILLE    SUNNY     75  46  35 VRB3      29.97F
MURFREESBORO   CLEAR     76  42  29 N7        29.97F
SHELBYVILLE    SUNNY     79  46  31 NW3       29.98F
TULLAHOMA      SUNNY     79  39  24 NW6       29.98F
WINCHESTER     MOSUNNY   79  55  44 W5        29.96F
$$


...KEY TO REMARKS...
VSB - VISIBILITY IN MILES
WCI - WIND CHILL INDEX
HX  - HEAT INDEX




USA.gov is the U.S. government's official web portal to all federal, state and local government web resources and services.